Weather History for Tirstrup, Denmark

Change the Weather History Date:

Saturday, December 14, 2013

  Actual Average Record
Temperature  
Mean Temperature 40 °F -  
Max Temperature 43 °F 38 °F 51 °F (2006)
Min Temperature 38 °F 31 °F 24 °F (2010)
Degree Days  
Heating Degree Days 24    
Moisture  
Dew Point 40 °F    
Average Humidity 92    
Maximum Humidity 93    
Minimum Humidity 87    
Precipitation  
Precipitation 0.03 in - - ()
Sea Level Pressure  
Sea Level Pressure 30.08 in    
Wind  
Wind Speed 6 mph ()    
Max Wind Speed 9 mph    
Max Gust Speed -    
Visibility 2.9 miles    
Events Rain    
Averages and records for this station are not official NWS values.
T = Trace of Precipitation, MM = Missing Value Source: Averaged Metar Reports

Daily Weather History Graph

Daily Weather History Graph

Search for Another Location

Airport:

Trip Planner

Search our weather history database for the weather conditions in past years. The results will help you decide how hot, cold, wet, or windy it might be!

Date:

Astronomy

Dec. 14, 2013 Rise Set
Actual Time 8:43 AM CET 3:40 PM CET
Civil Twilight 7:56 AM CET 4:28 PM CET
Nautical Twilight 7:06 AM CET 5:17 PM CET
Astronomical Twilight 6:20 AM CET 6:03 PM CET
Moon 2:13 PM CET (12/14) 5:23 AM CET (12/14)
Length of Visible Light 8h 31m
Length of Day
6h 56m
Waxing Gibbous, 92% of the Moon is Illuminated
Dec 14
Waxing Gibbous
Dec 17
Full
Dec 25
Last Quarter
Jan 1
New
Jan 8
First Quarter

Hourly Weather History & Observations

Time (CET) Temp. Windchill Dew Point Humidity Pressure Visibility Wind Dir Wind Speed Gust Speed Precip Events Conditions
12:20 AM 42.8 °F 38.0 °F 39.2 °F 87% 30.06 in 1.5 mi SSW 8.1 mph - N/A   Mostly Cloudy
12:50 AM 42.8 °F 38.0 °F 39.2 °F 87% 30.06 in 1.5 mi South 8.1 mph - N/A   Mostly Cloudy
1:00 AM 42 °F - 40 °F 90% 30.08 in 2 mi South 6.9 mph - -   Mist
1:20 AM 42.8 °F 38.6 °F 41.0 °F 93% 30.06 in 1.4 mi SSW 6.9 mph - N/A   Mostly Cloudy
1:50 AM 42.8 °F 38.6 °F 41.0 °F 93% 30.06 in 1.6 mi SSW 6.9 mph - N/A   Mostly Cloudy
2:20 AM 42.8 °F 39.3 °F 41.0 °F 93% 30.06 in 1.6 mi SSW 5.8 mph - N/A   Mostly Cloudy
2:50 AM 42.8 °F 38.6 °F 41.0 °F 93% 30.06 in 1.6 mi South 6.9 mph - N/A   Mostly Cloudy
3:20 AM 42.8 °F 38.6 °F 39.2 °F 87% 30.06 in 1.7 mi SSW 6.9 mph - N/A   Mostly Cloudy
3:50 AM 41.0 °F 37.1 °F 39.2 °F 93% 30.04 in 1.5 mi South 5.8 mph - N/A   Mostly Cloudy
4:00 AM 42 °F - 40 °F 89% 30.06 in 2 mi South 6.9 mph - -   Mist
4:20 AM 41.0 °F 35.8 °F 39.2 °F 93% 30.04 in 1.6 mi South 8.1 mph - N/A   Mostly Cloudy
4:50 AM 41.0 °F 35.8 °F 39.2 °F 93% 30.04 in 1.6 mi South 8.1 mph - N/A   Mostly Cloudy
5:20 AM 41.0 °F 37.1 °F 39.2 °F 93% 30.04 in 1.2 mi SSW 5.8 mph - N/A   Mostly Cloudy
5:50 AM 41.0 °F 35.8 °F 39.2 °F 93% 30.01 in 1.2 mi South 8.1 mph - N/A   Overcast
6:20 AM 41.0 °F 35.8 °F 39.2 °F 93% 30.04 in 1.7 mi South 8.1 mph - N/A   Mostly Cloudy
6:50 AM 41.0 °F 35.8 °F 39.2 °F 93% 30.04 in - SSW 8.1 mph - N/A   Mostly Cloudy
7:00 AM 42 °F - 40 °F 88% 30.04 in 2 mi South 8.1 mph - -   Mist
7:20 AM 41.0 °F 35.8 °F 39.2 °F 93% 30.04 in - SSW 8.1 mph - N/A   Mostly Cloudy
7:50 AM 42.8 °F 38.6 °F 39.2 °F 87% 30.04 in 1.8 mi South 6.9 mph - N/A   Mostly Cloudy
8:20 AM 42.8 °F 38.6 °F 39.2 °F 87% 30.04 in 1.8 mi South 6.9 mph - N/A   Mostly Cloudy
8:50 AM 42.8 °F 38.6 °F 41.0 °F 93% 30.04 in - South 6.9 mph - N/A   Overcast
9:20 AM 42.8 °F 40.1 °F 41.0 °F 93% 30.04 in 1.8 mi South 4.6 mph - N/A   Overcast
9:50 AM 42.8 °F 40.1 °F 41.0 °F 93% 30.06 in 1.7 mi South 4.6 mph - N/A   Mostly Cloudy
10:00 AM 42 °F - 41 °F 93% 30.07 in 2 mi South 5.8 mph - -   Mist
10:20 AM 42.8 °F 38.6 °F 41.0 °F 93% 30.06 in 1.6 mi SSE 6.9 mph - N/A   Mostly Cloudy
10:50 AM 42.8 °F 40.1 °F 41.0 °F 93% 30.06 in 1.9 mi South 4.6 mph - N/A   Mostly Cloudy
11:20 AM 42.8 °F 41.1 °F 41.0 °F 93% 30.06 in - SSE 3.5 mph - N/A   Mostly Cloudy
11:50 AM 42.8 °F 41.1 °F 41.0 °F 93% 30.06 in - South 3.5 mph - N/A   Mostly Cloudy
12:20 PM 42.8 °F 41.1 °F 41.0 °F 93% 30.06 in 2.5 mi SSW 3.5 mph - N/A   Overcast
12:50 PM 42.8 °F 40.1 °F 41.0 °F 93% 30.06 in - SW 4.6 mph - N/A   Overcast
1:00 PM 43 °F - 40 °F 87% 30.08 in 2 mi SSW 3.5 mph - -   Mist
1:20 PM 42.8 °F 40.1 °F 41.0 °F 93% 30.06 in 1.7 mi WSW 4.6 mph - N/A   Drizzle
1:50 PM 42.8 °F 40.1 °F 41.0 °F 93% 30.06 in - WSW 4.6 mph - N/A Rain Light Rain
2:20 PM 42.8 °F 39.3 °F 41.0 °F 93% 30.09 in - WSW 5.8 mph - N/A   Drizzle
2:50 PM 42.8 °F 38.6 °F 41.0 °F 93% 30.09 in 2.2 mi WSW 6.9 mph - N/A   Drizzle
3:20 PM 42.8 °F 41.1 °F 41.0 °F 93% 30.09 in - SW 3.5 mph - N/A   Light Drizzle
3:50 PM 42.8 °F 40.1 °F 41.0 °F 93% 30.09 in - SSW 4.6 mph - N/A Rain Light Rain
4:00 PM 43 °F - 41 °F 92% 30.11 in 2 mi SSW 3.5 mph - - Rain Light Rain
4:20 PM 42.8 °F 41.1 °F 41.0 °F 93% 30.09 in - SSW 3.5 mph - N/A   Mostly Cloudy
4:50 PM 42.8 °F 40.1 °F 41.0 °F 93% 30.09 in 3.1 mi SW 4.6 mph - N/A   Mostly Cloudy
5:20 PM 42.8 °F 40.1 °F 41.0 °F 93% 30.12 in 3.1 mi SW 4.6 mph - N/A   Mostly Cloudy
5:50 PM 41.0 °F 38.0 °F 39.2 °F 93% 30.12 in - SW 4.6 mph - N/A   Partly Cloudy
6:20 PM 41.0 °F 37.1 °F 39.2 °F 93% 30.12 in 3.7 mi SW 5.8 mph - N/A   Scattered Clouds
6:50 PM 42.8 °F 39.3 °F 41.0 °F 93% 30.12 in 5.6 mi SW 5.8 mph - N/A   Mostly Cloudy
7:00 PM 42 °F - 40 °F 89% 30.14 in 5 mi SW 4.6 mph - -   Mist
7:20 PM 41.0 °F 38.0 °F 39.2 °F 93% 30.12 in 5.6 mi SW 4.6 mph - N/A   Mostly Cloudy
7:50 PM 39.2 °F 35.9 °F 37.4 °F 93% 30.12 in 5.6 mi SW 4.6 mph - N/A   Unknown
8:20 PM 39.2 °F 35.9 °F 37.4 °F 93% 30.12 in - SSW 4.6 mph - N/A   Mist
8:50 PM 39.2 °F 37.0 °F 37.4 °F 93% 30.12 in 4.3 mi South 3.5 mph - N/A   Unknown
9:20 PM 39.2 °F 37.0 °F 37.4 °F 93% 30.12 in 4.3 mi South 3.5 mph - N/A   Unknown
9:50 PM 39.2 °F 37.0 °F 37.4 °F 93% 30.12 in 5.6 mi SSE 3.5 mph - N/A   Unknown
10:00 PM 38 °F - 36 °F 91% 30.12 in 6 mi South 3.5 mph - -   Mist
10:20 PM 39.2 °F 35.9 °F 37.4 °F 93% 30.09 in 6.2 mi South 4.6 mph - N/A   Unknown
10:50 PM 39.2 °F 35.0 °F 37.4 °F 93% 30.09 in 6.2 mi South 5.8 mph - N/A   Unknown
11:20 PM 41.0 °F 36.4 °F 37.4 °F 87% 30.09 in 6.2 mi Variable 6.9 mph - N/A   Unknown
11:50 PM 41.0 °F 35.2 °F 39.2 °F 93% 30.09 in 6.2 mi SSW 9.2 mph - N/A   Mostly Cloudy